Temp_Advection
nan nan nan nan nan nan nan nan nan nan nan nan nan nan nan nan nan nan nan nan nan nan nan nan nan nan nan nan nan nan nan nan nan nan nan nan nan nan nan nan nan nan nan nan
nan -1 -1 -0 -0 -0 -0 -0 -1 -1 -0 0 0 0 -0 -0 -0 -1 -0 -2 -0 0 1 2 1 1 1 0 1 1 1 1 0 0 0 0 0 0 0 -0 -0 -0 -1 nan
nan -0 -0 0 0 -0 0 -0 -0 -1 -0 -0 0 -0 -0 -0 -0 -0 -1 -0 1 1 1 1 1 2 1 1 1 1 1 1 1 0 0 0 0 0 0 -0 -0 -0 -0 nan
nan -0 0 0 -0 0 -0 -1 -0 0 0 -0 0 0 0 0 0 -0 0 1 0 1 1 1 1 1 1 1 1 1 1 1 1 1 0 0 0 -0 0 0 0 -0 -0 nan
nan -0 0 -0 -0 0 0 -0 0 0 0 0 0 0 0 0 0 -0 -0 -1 0 2 3 5 3 1 1 1 1 1 0 0 0 0 0 0 0 0 0 0 0 0 -0 nan
nan -1 0 -0 -0 0 -0 -0 -0 0 0 0 -0 -0 -0 -0 -0 -1 -1 -0 3 4 4 3 2 2 1 1 1 0 0 0 0 0 0 0 0 0 0 0 0 0 -0 nan
nan -0 -0 0 0 -0 0 0 0 0 0 -1 0 0 -0 -0 0 0 -0 -1 4 5 2 2 2 1 1 0 0 0 1 0 0 0 0 0 0 0 0 0 0 0 -0 nan
nan -1 -0 -0 -0 0 0 0 -0 -0 -0 -0 0 0 -0 0 -1 -1 -1 -0 1 1 0 1 1 1 0 -0 0 0 0 0 0 0 0 0 0 0 0 -0 -0 -0 -0 nan
nan -0 -1 -0 -0 -0 0 -0 -0 0 0 0 -0 -0 -0 -1 -1 -1 -1 -1 -0 1 1 -1 -0 0 0 0 0 0 0 0 0 0 0 0 0 0 -0 -0 -0 -0 -0 nan
nan -0 -1 -0 -0 -0 -0 0 1 -0 0 -0 -0 0 0 -0 -0 -0 -1 -1 -1 -0 1 1 0 0 0 0 0 0 0 0 0 0 0 0 0 0 -0 -0 -0 -0 -0 nan
nan -0 -0 -0 0 0 -0 -0 -0 -0 0 0 -0 0 -1 -1 -0 -0 -0 -1 -1 -0 -0 -0 0 1 1 0 0 0 0 0 0 0 0 0 0 -0 -0 -0 -0 -0 -0 nan
nan 0 -0 -0 -0 -0 -0 -0 -0 -0 -0 -0 -0 0 -0 0 -0 -0 -0 -0 -0 0 1 1 0 0 1 1 0 0 0 0 0 0 0 0 0 -0 -0 -0 -0 -0 -0 nan
nan -0 -0 -1 -0 -0 -1 -0 -0 0 -0 0 -0 -0 -0 -0 0 0 -0 -0 -0 -0 -0 0 0 1 0 0 0 0 0 0 0 0 0 0 -0 -0 -0 -0 -0 -0 -1 nan
nan 0 -0 -0 0 -0 0 -0 -0 0 -0 -0 -0 -1 -0 -0 -0 -0 -1 -1 -0 -0 -0 0 0 1 0 0 1 0 0 0 0 0 0 0 0 -0 -0 -0 -0 -0 -0 nan
nan 0 0 -0 -0 -0 -0 -0 0 -0 -0 -0 -1 -0 -0 -0 -0 -1 -1 0 -0 -0 0 0 1 0 1 1 1 1 0 0 0 0 0 0 0 -0 -0 -0 -0 -0 -0 nan
nan -0 0 -0 -1 -0 -0 -0 -0 -0 -0 -0 0 -0 -0 -0 0 0 0 -0 -0 0 0 3 3 2 1 0 0 0 -0 0 0 0 0 0 0 0 -0 -0 -0 -0 -0 nan
nan 0 0 -0 -0 -0 -0 -1 0 0 -0 0 -0 -1 -0 -0 -0 -0 -0 -0 0 2 3 4 3 2 0 0 1 0 1 0 0 0 0 0 0 0 -0 -0 -0 -0 -0 nan
nan -0 0 -0 0 -0 -1 -0 0 -0 0 -0 0 -0 -0 0 0 -1 -1 -1 -1 2 4 2 3 1 1 1 1 1 1 1 0 0 0 0 0 -0 0 -0 -0 -0 -0 nan
nan -0 -0 -0 -0 -0 -0 0 0 -0 -0 -0 -0 -0 -0 -0 0 -0 -1 -0 0 2 2 2 0 1 2 1 1 1 1 1 0 0 0 0 0 -0 -0 -0 -0 -0 -0 nan
nan 0 -0 0 0 -0 -1 0 0 -0 0 -0 -0 -0 -0 -0 -0 0 -0 0 1 0 0 1 0 1 1 1 1 0 0 0 0 0 0 0 0 0 -0 -0 -0 -0 -0 nan
nan 0 0 -0 -0 -0 -0 -0 -0 0 -0 -0 -0 -0 0 0 -0 0 -0 1 0 1 1 0 1 0 0 1 0 0 0 0 0 0 0 0 0 0 -0 -0 -0 -0 -0 nan
nan -0 0 0 0 -1 -0 0 -0 -0 0 0 -0 -0 0 0 0 1 1 1 1 2 2 1 1 1 0 0 0 -0 0 0 0 0 0 0 0 -0 -0 -0 -0 -0 -0 nan
nan -0 -0 -0 -0 -1 -0 0 -0 0 0 -0 0 0 0 1 1 1 1 1 1 1 0 1 1 1 0 -0 0 -0 0 0 0 0 0 0 0 0 -0 -0 -0 -0 -0 nan
nan 0 0 0 -0 -0 -0 -0 -0 0 0 -0 0 0 0 1 0 0 0 0 0 1 0 0 0 0 1 1 0 0 0 0 0 0 0 0 0 -0 -0 -0 -0 -0 -0 nan
nan 0 0 -0 -0 -1 -1 -0 -0 -0 -0 -0 0 0 1 1 0 -0 0 0 0 0 0 1 1 1 1 1 1 1 0 0 0 0 -0 0 -0 0 0 -0 -0 -0 -0 nan
nan nan nan nan nan nan nan nan nan nan nan nan nan nan nan nan nan nan nan nan nan nan nan nan nan nan nan nan nan nan nan nan nan nan nan nan nan nan nan nan nan nan nan nan
Wind_Speed
9 4 10 17 8 7 10 14 14 16 15 6 9 6 10 12 8 14 27 33 39 43 42 42 39 37 34 27 21 18 16 17 15 12 9 7 3 4 4 3 7 10 10 11
6 15 10 10 10 11 14 17 19 16 15 8 10 7 9 7 9 17 25 31 39 35 41 43 42 40 36 30 23 19 18 18 16 15 12 10 9 6 3 2 6 9 11 12
14 7 6 14 16 16 17 16 16 17 9 8 2 13 4 5 7 14 21 29 40 47 49 48 46 41 35 30 24 20 17 17 16 15 14 15 11 8 5 2 5 6 9 12
13 9 16 18 14 11 21 12 19 21 6 6 5 16 6 3 7 6 15 28 34 43 49 54 49 42 36 29 23 20 17 15 14 14 14 14 15 13 8 5 4 5 8 11
9 8 4 8 8 7 15 7 11 11 5 2 5 3 2 3 6 8 10 22 36 44 53 56 52 44 35 28 23 18 14 13 13 14 14 15 14 11 8 4 3 5 8 11
16 27 10 4 7 4 7 7 5 2 3 5 10 8 15 6 7 11 18 31 25 41 43 39 46 41 34 27 21 16 14 13 12 12 12 12 12 10 7 5 4 5 8 10
11 13 13 18 18 18 5 3 4 5 4 10 6 5 15 6 13 6 13 27 23 39 41 46 49 41 34 26 20 16 15 14 11 10 9 9 8 6 4 2 3 4 8 11
4 7 3 9 11 8 15 9 6 7 9 11 1 6 5 4 7 9 15 21 25 28 31 39 42 38 30 22 17 16 15 14 10 9 8 7 6 4 2 2 5 7 9 11
1 6 10 12 2 3 8 10 7 6 2 1 4 4 7 7 7 10 14 20 30 33 38 39 34 30 25 19 16 16 16 13 10 9 8 7 4 2 2 4 8 9 10 10
5 6 6 4 7 6 2 3 4 1 4 5 5 2 5 5 6 7 8 13 21 26 36 36 32 25 23 20 17 17 14 12 9 8 7 5 3 0 3 6 8 10 10 10
5 5 5 6 3 3 6 5 5 2 3 5 3 2 12 14 8 7 9 18 24 31 33 31 28 25 22 21 19 17 14 12 10 7 6 4 1 2 4 5 7 8 9 11
0 2 4 6 6 2 5 2 1 3 2 3 5 3 5 10 11 17 17 17 10 14 28 30 29 29 29 24 20 16 14 12 9 8 6 4 1 2 4 6 5 6 9 11
2 2 4 6 3 5 7 3 2 4 2 2 3 2 2 4 7 3 10 15 15 10 17 20 24 29 29 25 19 15 13 11 10 8 6 3 1 3 4 4 3 6 11 9
5 4 7 9 3 2 2 4 6 6 2 2 5 15 11 9 9 9 19 11 16 17 12 25 29 31 29 25 22 17 15 12 10 7 4 2 2 3 3 2 3 6 9 10
1 6 5 10 10 9 10 8 8 9 11 8 15 14 15 4 10 17 14 13 25 28 28 32 36 34 29 26 22 18 15 13 11 8 5 3 3 2 2 2 3 4 5 9
4 3 2 8 15 7 9 10 9 7 9 10 11 11 7 12 20 17 22 20 23 26 38 40 43 41 37 31 25 19 15 14 10 8 6 3 3 1 1 3 2 3 5 8
3 1 2 5 9 3 5 10 9 4 4 6 6 11 7 10 8 5 11 20 27 28 37 45 49 45 38 31 24 20 17 15 11 9 6 4 4 1 2 2 1 3 8 11
6 3 2 3 5 5 6 3 3 6 4 5 5 10 12 4 1 12 11 11 15 18 33 43 46 44 37 28 21 19 16 15 13 11 7 5 4 2 2 1 3 6 9 11
8 5 3 3 5 6 10 1 1 2 6 8 6 9 4 7 0 6 11 4 5 11 25 37 37 38 30 28 24 20 18 16 14 10 7 7 5 4 3 3 5 6 8 8
11 5 4 4 4 4 7 3 5 4 9 6 10 7 4 4 4 4 1 4 11 16 21 32 39 32 31 25 20 20 20 19 14 11 9 8 6 3 4 5 5 6 6 8
5 3 10 7 6 5 2 5 7 3 7 8 10 18 16 5 8 8 13 12 10 16 26 30 31 29 25 23 22 23 22 16 13 11 9 9 5 3 4 4 3 4 5 7
5 5 4 3 4 6 3 9 1 3 11 15 18 20 14 11 9 17 20 17 20 24 24 27 34 29 23 24 26 23 18 16 15 12 9 9 5 2 2 2 4 6 6 7
3 5 4 7 6 5 11 7 11 11 10 14 20 20 11 12 18 23 20 19 22 26 27 27 28 30 29 26 23 20 19 18 16 12 10 10 6 4 2 2 5 7 8 9
2 2 3 2 3 5 11 18 17 11 18 19 15 14 11 17 21 23 22 23 25 25 29 30 30 28 29 25 22 18 20 19 16 14 11 10 8 5 3 2 5 6 8 10
5 2 3 5 5 13 15 8 15 18 17 17 16 16 18 16 26 28 27 27 29 31 30 30 30 30 27 25 23 21 20 19 18 16 13 11 8 5 4 3 3 7 8 10
6 6 4 6 8 13 14 24 20 20 21 27 19 18 21 26 34 31 30 31 33 34 35 31 29 28 27 25 23 23 20 18 16 16 13 11 9 8 5 3 3 3 5 8
Wind_Direction
275 168 209 228 195 220 252 267 267 275 275 283 262 251 275 280 236 186 199 198 198 201 186 187 190 194 197 201 203 204 208 201 189 175 180 188 210 227 260 317 348 339 350 350
287 247 238 242 228 221 238 252 263 271 270 258 253 260 260 272 227 216 201 199 197 186 184 186 190 194 200 201 198 204 204 198 193 188 186 185 176 188 223 303 337 335 346 345
242 230 219 219 238 248 247 245 257 253 258 271 302 276 216 246 249 244 220 219 198 196 188 187 189 191 192 193 194 198 193 192 192 189 178 167 174 179 201 271 313 340 340 343
261 205 238 258 248 242 260 254 258 260 226 250 197 277 223 227 264 248 234 219 203 196 192 191 190 184 185 184 187 185 188 188 186 186 181 180 182 184 200 244 309 322 328 337
234 291 254 247 231 222 273 278 266 257 222 157 209 225 90 226 253 269 273 234 222 207 194 192 190 181 177 179 181 180 182 182 181 186 182 181 184 192 199 211 252 293 314 324
259 257 246 239 269 247 299 292 268 261 154 212 229 198 267 225 219 249 258 272 250 199 183 176 175 168 165 169 173 172 180 181 178 183 179 182 184 184 191 194 243 291 309 322
289 253 251 233 253 268 209 257 288 241 206 245 150 200 246 234 268 235 253 269 245 183 165 166 164 160 157 161 165 170 177 168 173 171 169 171 169 173 177 207 274 306 317 320
318 321 35 337 224 236 220 191 208 250 240 255 230 227 255 54 23 70 82 101 115 133 142 146 155 151 151 156 164 170 173 170 167 168 167 166 159 168 198 302 323 330 326 324
137 262 315 327 334 281 231 214 216 234 222 134 257 297 296 36 33 85 101 116 127 137 144 152 150 149 148 158 168 175 174 166 164 167 166 164 164 179 297 315 329 330 328 322
184 280 267 299 339 335 27 210 225 17 172 226 246 244 245 41 81 81 86 96 108 123 138 150 147 158 158 162 171 177 178 171 168 172 176 178 169 186 323 329 325 329 327 324
134 178 287 345 299 228 359 356 4 89 162 202 233 180 32 36 2 122 117 119 127 140 148 156 161 161 165 168 174 175 178 183 182 182 184 178 214 323 328 331 336 332 329 337
332 217 272 243 253 52 63 340 74 244 78 320 282 196 15 30 27 54 61 82 124 147 163 164 169 169 169 172 174 181 188 191 190 185 182 195 262 324 337 341 350 337 336 345
198 33 329 315 37 58 79 113 230 141 272 143 329 30 213 181 271 346 27 56 66 131 156 169 176 176 173 171 175 182 187 189 184 179 183 201 304 334 338 354 2 338 343 358
139 186 190 246 207 57 237 207 234 204 154 186 216 278 247 229 249 196 186 200 213 198 203 206 187 183 180 180 180 180 181 182 177 181 200 227 287 316 338 357 350 340 347 349
132 215 201 258 264 241 242 257 230 210 257 269 273 267 272 201 218 205 226 232 206 206 201 208 195 187 184 180 175 177 175 174 180 187 208 231 290 302 7 355 359 3 350 340
332 254 44 267 263 267 281 275 273 266 259 252 259 263 279 248 244 211 211 223 232 219 209 206 197 190 187 185 180 178 174 180 186 195 201 224 243 199 60 30 357 323 340 346
204 180 66 266 256 322 313 240 232 188 230 233 254 274 297 289 300 306 262 236 232 237 215 198 189 184 182 184 181 178 179 177 189 195 184 186 192 156 36 66 67 352 355 348
184 166 158 272 304 211 245 259 273 232 238 274 307 299 300 264 145 25 8 325 296 255 203 189 184 185 182 179 174 177 180 181 183 177 175 172 166 137 124 96 33 5 350 347
197 157 179 235 242 273 295 6 124 24 299 312 299 307 8 331 217 345 358 322 245 211 188 188 184 180 174 176 176 173 170 176 175 178 167 162 159 137 120 48 21 4 354 355
209 211 176 152 242 247 272 68 78 21 304 43 349 317 288 311 343 267 329 185 161 169 182 187 182 189 184 180 181 168 166 177 175 174 159 159 165 126 71 43 20 10 11 27
156 167 212 226 238 258 298 352 349 180 265 6 348 332 309 238 247 217 179 166 173 179 175 174 184 184 183 177 168 165 172 173 169 162 160 166 165 100 53 38 39 38 40 37
162 141 175 170 222 254 274 336 15 230 312 310 298 295 294 268 195 171 173 165 168 164 165 172 170 177 173 165 170 170 170 170 166 163 169 172 161 106 71 50 64 61 59 51
213 188 185 166 208 228 302 274 311 297 296 315 298 276 247 216 181 185 181 177 172 165 165 168 162 159 165 174 180 177 170 173 171 173 173 179 171 152 111 87 72 71 66 55
305 249 191 111 220 207 282 299 292 274 317 322 301 245 232 203 193 190 186 174 167 169 168 169 163 160 162 173 185 188 175 183 181 183 180 180 186 162 143 110 70 63 50 41
196 105 198 260 290 278 270 261 301 301 301 304 290 263 228 217 197 196 183 176 171 168 168 167 163 165 165 173 178 181 181 188 188 184 179 184 185 183 166 128 79 46 28 26
182 193 177 256 236 256 259 281 296 283 287 297 284 240 213 207 200 194 183 182 174 172 170 175 179 175 171 182 182 178 186 197 197 185 182 187 188 191 186 168 93 47 19 18
Height
1480 1485 1487 1479 1483 1484 1484 1483 1484 1474 1465 1467 1463 1458 1453 1447 1449 1451 1453 1455 1458 1461 1464 1468 1471 1473 1476 1479 1483 1487 1489 1492 1496 1499 1502 1505 1507 1506 1506 1506 1506 1505 1503 1503
1482 1477 1474 1475 1478 1481 1481 1482 1476 1468 1463 1462 1459 1455 1450 1446 1447 1445 1445 1449 1451 1458 1462 1464 1466 1467 1470 1474 1479 1482 1486 1489 1491 1494 1499 1503 1504 1505 1506 1504 1504 1503 1502 1501
1478 1469 1468 1469 1471 1476 1473 1474 1472 1469 1460 1454 1454 1447 1445 1443 1441 1441 1441 1441 1444 1447 1452 1457 1459 1462 1466 1471 1475 1479 1484 1486 1488 1490 1494 1499 1501 1502 1506 1505 1503 1501 1500 1500
1468 1464 1466 1464 1465 1470 1466 1462 1458 1457 1462 1470 1451 1453 1443 1439 1440 1438 1438 1439 1440 1441 1446 1448 1452 1457 1463 1468 1473 1477 1481 1484 1487 1489 1492 1494 1497 1498 1500 1502 1503 1502 1500 1498
1458 1461 1462 1461 1461 1460 1456 1456 1455 1453 1456 1456 1455 1468 1441 1437 1440 1436 1431 1430 1432 1433 1436 1441 1446 1452 1459 1465 1470 1475 1481 1484 1486 1488 1490 1492 1494 1496 1498 1499 1501 1500 1498 1497
1456 1456 1458 1455 1453 1455 1455 1455 1452 1449 1455 1466 1441 1457 1438 1443 1437 1428 1423 1422 1423 1425 1434 1440 1445 1451 1456 1464 1470 1474 1477 1481 1485 1488 1489 1491 1492 1493 1496 1497 1498 1498 1496 1495
1458 1453 1447 1449 1454 1450 1455 1460 1474 1466 1467 1455 1442 1450 1431 1428 1426 1423 1420 1412 1412 1418 1428 1431 1440 1449 1456 1463 1468 1474 1477 1479 1483 1487 1489 1490 1490 1492 1494 1495 1495 1496 1494 1492
1471 1463 1445 1450 1448 1444 1443 1451 1470 1461 1455 1447 1435 1444 1436 1425 1423 1422 1419 1416 1419 1427 1433 1438 1444 1449 1457 1464 1469 1473 1476 1479 1480 1485 1488 1490 1488 1491 1492 1492 1493 1493 1492 1491
1477 1463 1447 1445 1446 1443 1438 1442 1440 1451 1449 1460 1451 1437 1426 1424 1428 1429 1428 1424 1422 1430 1436 1440 1452 1457 1459 1465 1470 1473 1477 1478 1480 1482 1485 1487 1488 1488 1490 1491 1492 1492 1491 1488
1460 1467 1448 1443 1439 1435 1435 1432 1446 1455 1461 1461 1448 1442 1443 1436 1434 1435 1434 1434 1434 1436 1436 1446 1448 1460 1461 1465 1470 1473 1476 1478 1480 1482 1484 1486 1486 1486 1488 1489 1489 1489 1488 1486
1456 1465 1455 1449 1447 1444 1443 1450 1449 1448 1451 1456 1453 1449 1448 1447 1443 1440 1438 1437 1439 1441 1444 1448 1453 1457 1461 1466 1470 1472 1475 1477 1479 1481 1484 1484 1485 1485 1486 1487 1487 1487 1486 1483
1458 1459 1464 1454 1443 1442 1444 1453 1459 1453 1452 1451 1446 1447 1452 1451 1454 1449 1447 1439 1447 1449 1445 1446 1450 1453 1460 1463 1467 1472 1476 1477 1478 1480 1481 1482 1482 1483 1485 1485 1484 1484 1484 1481
1458 1464 1474 1455 1449 1449 1455 1463 1468 1463 1466 1458 1459 1449 1450 1452 1451 1456 1449 1451 1452 1452 1452 1452 1455 1457 1460 1462 1466 1471 1473 1476 1477 1478 1479 1480 1481 1482 1483 1483 1482 1481 1481 1478
1455 1459 1460 1463 1458 1456 1455 1455 1453 1457 1464 1453 1458 1448 1443 1447 1447 1442 1439 1442 1447 1447 1450 1450 1452 1455 1455 1457 1461 1466 1470 1472 1474 1477 1478 1479 1480 1482 1481 1481 1480 1480 1479 1477
1455 1459 1456 1450 1449 1453 1451 1448 1446 1450 1449 1455 1448 1442 1432 1435 1440 1438 1435 1431 1436 1437 1440 1440 1442 1448 1454 1457 1461 1465 1467 1469 1471 1474 1477 1479 1479 1480 1479 1480 1480 1478 1477 1475
1457 1458 1456 1453 1446 1446 1444 1441 1441 1440 1439 1441 1440 1437 1432 1434 1433 1429 1427 1426 1426 1428 1428 1430 1436 1440 1445 1451 1459 1462 1463 1466 1468 1472 1475 1477 1478 1478 1479 1478 1477 1477 1475 1475
1459 1460 1457 1451 1445 1446 1460 1437 1440 1445 1437 1439 1442 1431 1429 1426 1421 1419 1420 1419 1416 1417 1421 1426 1430 1435 1443 1451 1454 1456 1460 1462 1467 1471 1474 1475 1477 1477 1477 1476 1476 1475 1474 1474
1455 1457 1460 1452 1456 1456 1433 1431 1432 1434 1434 1434 1433 1429 1426 1424 1420 1418 1416 1415 1409 1411 1414 1422 1429 1433 1439 1447 1451 1455 1458 1460 1465 1469 1473 1474 1474 1477 1475 1475 1474 1473 1474 1473
1443 1449 1457 1454 1452 1441 1433 1430 1430 1430 1433 1428 1425 1422 1421 1419 1418 1416 1415 1410 1410 1413 1416 1421 1435 1437 1439 1444 1446 1453 1456 1460 1465 1468 1470 1472 1474 1475 1474 1473 1473 1473 1473 1473
1438 1442 1449 1452 1455 1459 1431 1429 1426 1426 1433 1425 1428 1425 1424 1421 1423 1419 1414 1413 1413 1415 1420 1426 1428 1432 1442 1443 1447 1452 1457 1462 1463 1467 1469 1470 1473 1474 1473 1472 1472 1472 1472 1471
1439 1443 1445 1443 1446 1439 1428 1426 1425 1437 1436 1427 1427 1425 1422 1421 1417 1411 1414 1416 1417 1415 1416 1427 1433 1438 1442 1443 1446 1451 1457 1460 1462 1466 1468 1470 1472 1472 1472 1472 1472 1472 1470 1469
1430 1447 1448 1444 1444 1446 1426 1426 1428 1429 1426 1425 1423 1421 1419 1418 1415 1415 1415 1416 1416 1418 1425 1426 1423 1432 1440 1444 1449 1454 1456 1458 1461 1464 1468 1469 1470 1470 1471 1472 1471 1470 1469 1468
1433 1428 1431 1432 1434 1422 1422 1423 1424 1424 1423 1420 1418 1416 1416 1415 1416 1418 1419 1418 1420 1420 1423 1429 1433 1433 1439 1445 1450 1454 1455 1458 1460 1463 1467 1468 1469 1470 1471 1471 1470 1469 1468 1467
1423 1421 1425 1422 1418 1416 1417 1419 1420 1419 1418 1415 1413 1412 1412 1413 1413 1418 1417 1419 1422 1423 1426 1430 1432 1437 1440 1445 1450 1453 1453 1457 1459 1463 1464 1466 1469 1469 1470 1469 1469 1469 1468 1466
1420 1420 1421 1419 1415 1413 1411 1411 1413 1413 1412 1411 1411 1409 1407 1408 1412 1413 1416 1419 1419 1424 1428 1432 1433 1439 1442 1445 1449 1451 1453 1457 1459 1461 1463 1466 1467 1468 1468 1468 1468 1468 1466 1465
1412 1415 1423 1415 1411 1411 1407 1406 1407 1407 1406 1404 1404 1402 1402 1403 1406 1411 1414 1417 1419 1423 1427 1431 1434 1438 1442 1445 1448 1451 1453 1457 1458 1459 1462 1464 1465 1466 1467 1467 1467 1467 1465 1464